CAPE
19 14 8 11 8 2 2 5 1 15 30 1 0 0 1 0 4 0 0 0 2 0 0 0 0 0 0 0 0 0 0 0 0 0 0 0 0 0 0 0 0 0 0 0
18 13 16 8 4 0 0 5 4 1 26 0 0 0 0 1 1 0 0 0 2 5 1 0 0 0 0 0 0 0 0 1 0 0 0 0 0 0 0 0 0 0 0 0
13 12 4 7 1 0 6 0 8 2 60 1 0 0 0 0 0 0 0 0 0 0 0 0 0 0 0 0 0 0 0 0 0 0 0 0 0 0 0 0 0 0 0 0
17 4 1 0 0 0 2 0 0 0 0 0 0 1 0 0 0 0 1 0 0 0 0 1 0 3 0 0 0 0 0 0 0 0 0 0 0 0 0 0 0 0 0 0
6 9 2 10 4 0 5 0 0 3 0 0 0 1 1 0 1 0 1 0 0 0 0 0 1 1 0 0 0 0 0 0 0 0 0 0 0 0 0 0 0 0 0 0
4 15 11 11 0 9 0 0 1 0 1 1 1 0 1 0 0 1 0 0 0 0 0 0 0 0 0 0 0 0 0 0 0 0 0 0 0 0 0 0 0 0 0 0
5 9 17 1 1 8 0 0 9 3 1 1 1 1 0 1 0 0 1 0 0 1 1 2 2 0 1 1 0 0 0 0 0 0 0 0 0 0 0 0 0 0 0 0
10 16 14 2 1 0 0 2 24 10 1 0 0 1 0 0 1 0 0 1 0 3 0 0 0 0 0 0 0 0 2 2 0 0 0 0 0 0 0 0 0 0 0 0
9 14 23 14 5 1 0 0 0 0 0 0 0 1 0 0 2 0 1 3 4 0 0 1 0 0 0 0 0 0 0 0 0 0 0 0 0 0 0 0 0 0 0 0
12 11 14 18 16 10 0 0 0 0 0 3 1 0 0 0 0 0 0 0 1 0 0 1 0 0 0 0 0 0 0 1 0 0 0 0 0 0 0 0 0 0 0 0
6 8 10 5 10 5 1 6 0 0 0 2 0 0 0 1 0 0 1 0 1 0 0 0 0 0 0 0 0 0 0 0 0 2 0 0 0 0 0 0 0 0 0 0
0 0 2 4 7 5 2 3 1 0 0 2 5 4 2 0 0 0 1 0 0 0 0 0 0 0 0 0 0 0 0 0 0 0 0 0 0 0 0 0 0 0 0 0
1 0 0 3 6 9 0 3 0 0 0 1 0 2 2 0 0 0 0 0 0 0 13 0 0 0 0 0 0 0 0 0 0 0 0 0 0 0 0 0 0 0 0 0
0 0 0 2 0 1 3 3 2 0 0 0 0 0 0 0 2 0 5 0 0 0 0 0 0 0 0 0 0 0 0 0 0 0 0 0 0 0 0 0 0 0 0 0
0 0 0 0 0 0 0 0 2 0 0 0 1 1 7 12 5 2 0 0 0 0 0 0 0 0 0 0 0 0 0 0 0 0 0 1 1 1 0 0 0 0 0 0
0 0 0 0 0 0 0 0 0 0 0 0 0 1 6 16 15 11 2 0 3 4 0 0 0 0 0 0 0 0 0 0 0 0 0 0 0 0 0 0 0 1 3 1
0 0 0 0 0 0 0 0 0 0 0 0 0 0 1 22 20 13 13 15 13 10 7 5 3 0 0 0 0 0 0 0 0 0 0 0 0 0 0 0 0 2 1 0
0 0 0 0 0 0 0 0 0 0 0 0 0 2 0 0 11 0 6 1 3 8 8 1 0 0 0 0 0 0 0 0 0 0 0 0 0 0 0 1 0 1 3 12
0 0 0 0 0 0 0 0 1 0 0 0 0 0 2 10 13 5 5 5 0 1 0 0 0 0 6 0 0 0 0 2 0 0 0 0 0 0 9 6 9 3 2 0
0 0 0 0 0 0 0 0 0 3 0 1 1 0 1 4 4 1 0 13 5 4 0 8 0 0 0 0 7 14 0 0 0 0 0 2 0 2 1 5 0 0 0 0
27 0 0 4 0 60 9 3 7 1 0 22 18 12 0 5 1 1 9 6 3 1 1 1 0 0 0 4 0 0 0 0 0 0 0 1 0 1 1 0 0 1 1 1
22 0 0 11 19 49 1 4 0 2 3 9 7 14 9 17 10 5 1 0 0 0 1 0 0 0 22 1 0 0 1 1 0 0 0 1 2 0 2 1 1 1 1 1
88 59 4 19 1 10 7 0 2 32 23 26 53 8 22 39 3 1 0 0 3 16 0 0 0 0 2 1 0 0 1 1 0 0 1 0 1 0 0 1 1 1 1 1
65 31 1 14 2 22 39 0 1 68 68 7 15 11 22 21 0 1 1 1 8 0 0 0 12 1 1 0 0 1 0 2 0 0 1 0 0 0 1 1 2 1 1 1
74 36 19 40 97 13 6 102 76 45 23 19 11 25 14 0 0 1 6 0 0 0 2 45 6 0 1 0 0 0 0 0 0 1 1 1 0 0 0 0 0 0 0 0
48 56 76 38 58 2 0 22 17 16 33 23 14 0 0 0 0 0 5 0 0 16 4 0 15 1 0 2 0 0 1 1 1 1 1 0 2 1 1 0 0 0 0 0
39 19 0 1 7 1 1 29 120 34 45 18 16 0 0 0 5 9 9 9 28 52 53 27 1 1 1 1 0 0 0 0 0 1 0 0 0 0 0 0 1 0 0 0
CIN
-0 -0 -0 -0 0 0 0 -0 -0 -9 -11 -0 -0 0 0 0 -0 0 -0 0 -2 0 0 0 0 0 0 0 0 0 0 0 0 0 0 0 0 0 0 0 0 0 0 0
-0 -0 0 0 0 0 -0 -0 -0 -14 -0 0 0 0 0 -0 -0 0 0 0 -1 -1 0 0 0 0 0 0 0 0 0 -0 0 0 0 0 0 0 0 0 0 0 0 0
0 0 0 0 0 0 -1 -1 -1 -4 -1 -0 0 0 0 0 0 0 0 0 0 -0 0 0 0 0 0 0 0 0 0 0 0 0 0 0 0 0 0 0 0 0 0 0
0 0 0 0 0 0 0 0 0 0 -36 -6 0 0 0 0 0 0 0 0 0 0 0 0 0 0 0 0 0 0 0 0 0 0 0 0 0 0 0 0 0 0 0 0
0 0 0 0 0 0 0 0 0 0 -0 0 0 0 0 0 0 0 0 0 0 0 0 0 0 0 0 0 0 0 0 0 0 0 0 0 0 0 0 0 0 0 0 0
-0 0 -0 0 -1 0 -0 0 -7 -5 -0 0 0 0 0 0 0 0 0 0 0 0 0 0 -0 0 0 0 0 0 0 0 0 0 0 0 0 0 0 0 0 0 0 0
0 -0 -0 0 0 -0 0 0 -4 -1 0 0 0 0 0 -0 0 0 0 0 0 -0 -0 0 0 0 0 0 0 0 0 0 0 0 0 0 0 0 0 0 0 0 0 0
0 -0 -0 -0 0 -5 -12 -22 -7 -7 0 -0 -0 0 0 -0 0 0 0 0 0 -0 0 0 0 0 0 -1 0 0 -0 0 -1 0 0 0 0 0 0 0 0 0 0 0
0 0 0 -0 -1 -1 0 0 0 0 0 0 0 0 0 0 0 0 0 0 0 0 0 0 0 0 0 0 0 0 0 -0 0 0 0 0 0 0 0 0 0 0 0 0
-0 -0 0 0 -0 -1 -0 0 0 0 0 0 0 0 0 0 0 0 0 0 0 -0 0 0 0 0 0 0 0 0 -1 -4 0 0 0 0 0 0 0 0 0 0 0 0
-1 -0 -0 -2 -1 -1 -1 -0 0 0 0 0 0 0 0 0 0 0 0 0 -0 0 0 0 0 0 0 0 0 0 -0 0 -0 -0 -0 0 0 0 0 0 0 0 0 0
0 -0 -6 -4 -1 -1 -0 0 -5 -0 0 0 -0 -0 -1 0 0 0 -0 0 0 0 0 0 0 0 0 0 0 0 0 0 0 0 0 0 0 0 0 0 0 0 0 0
0 0 0 -1 0 -0 0 -0 -1 0 0 0 0 0 0 0 0 0 0 0 0 0 -0 0 0 0 0 0 0 0 0 0 0 0 0 0 0 0 0 0 0 0 0 0
0 0 0 -0 0 0 0 0 -0 0 0 0 0 0 0 -0 -2 0 -0 -1 -2 -2 0 0 0 0 0 0 0 0 0 0 0 0 0 0 0 0 0 0 0 0 0 0
0 0 0 0 -1 -1 0 0 -3 0 0 -0 0 -2 -0 -3 -0 -2 0 0 0 -0 0 0 0 0 0 0 0 0 0 0 0 0 0 -1 -1 -3 0 0 0 0 0 0
0 -15 0 -0 -6 0 0 0 0 0 0 0 0 -4 -1 -0 -4 -10 -14 0 -1 -2 0 0 0 0 0 0 0 0 0 0 0 0 0 0 0 0 0 0 0 -3 -2 -2
0 0 0 0 0 0 0 0 0 0 0 0 0 0 0 -1 -4 -3 -2 -4 -7 -4 -6 -6 -3 -0 0 0 0 0 0 0 0 0 0 0 0 -0 0 0 0 -8 -2 0
0 0 0 0 0 0 0 0 0 0 0 0 -0 -0 0 0 -0 -0 -1 -0 -3 -5 -1 -3 -2 -0 0 -0 0 0 0 0 0 0 0 0 0 0 0 -0 -1 -1 -2 -2
0 0 0 0 0 0 0 0 -9 0 0 0 0 -0 -0 -2 -0 -0 -0 -0 0 -1 -0 0 -1 -1 -0 0 0 0 -2 -6 0 0 0 0 0 -1 -3 -2 -2 -1 -2 -0
0 0 0 0 0 0 0 0 0 -19 0 -13 -3 0 -0 -1 -0 -0 0 -1 -2 -0 0 -1 -2 -0 0 -1 -4 -22 0 0 0 0 -0 -1 0 -5 -0 -3 -0 0 0 0
-33 0 -3 -1 0 -36 -59 -20 -22 -20 0 -2 -1 -3 -1 -3 -1 -0 -3 -4 -5 -3 -3 -1 -0 0 0 -3 0 0 0 0 -0 -0 0 -5 0 -1 -0 0 0 0 0 0
-2 0 -5 -53 -85 -35 -9 -21 0 -17 -5 -2 -4 -3 -0 -2 -6 -7 -9 -3 0 -2 -4 0 0 -1 -5 -1 0 0 -0 -0 -0 0 -0 -0 -0 -0 0 -0 0 0 0 0
-8 -11 -50 -34 -21 -30 -16 0 -4 -2 -4 -2 -1 -5 -1 -2 -10 -1 -4 0 -6 -6 -1 -1 0 -10 -2 -0 0 0 0 0 -0 -0 0 0 0 -0 0 0 0 0 0 0
-1 -3 -3 -27 -1 -8 -7 -1 -5 -2 -0 -9 -4 -0 -2 -4 0 -4 -5 -14 -6 -1 0 0 -61 -0 -0 -0 0 -0 0 -0 -0 -0 0 -0 0 0 0 0 0 0 0 0
-0 -3 -8 -10 -1 -16 -26 -2 -2 -3 -1 -3 -6 -3 -2 0 0 -5 -7 0 -0 -0 -6 -20 -11 -0 -0 0 0 0 0 0 0 0 0 0 0 0 -0 0 0 -0 0 0
-1 -4 -3 -20 -13 -13 0 -30 -26 -22 -4 -2 -4 -0 0 0 -1 -3 -17 -7 -2 -11 -10 -9 -4 -1 -0 -0 -1 -0 0 0 0 0 0 0 0 0 0 0 0 0 0 0
-1 -27 -0 -0 -56 -1 0 -20 -2 -15 -6 -6 -6 0 0 0 -11 -10 -12 -9 -21 -55 -28 -16 -1 -0 -0 -0 -0 0 0 -0 0 -0 -0 -1 0 0 0 -0 -1 -0 -1 0
Wind_Speed
50 53 56 57 54 54 50 53 66 42 43 61 62 69 55 48 48 49 43 46 46 45 38 38 36 37 31 26 27 31 23 26 28 26 22 26 26 27 26 33 35 33 37 40
49 55 55 52 49 37 38 52 61 45 46 71 63 51 52 50 47 50 47 42 46 43 42 42 38 31 25 21 24 25 23 25 29 30 34 30 27 25 24 28 31 38 40 42
50 46 42 38 39 33 37 45 60 53 57 61 62 57 56 53 44 45 44 45 40 39 40 33 35 32 25 21 24 24 23 28 35 37 34 27 31 27 27 29 37 39 43 48
37 35 36 40 46 44 40 46 50 54 63 63 60 54 53 55 52 43 42 45 47 42 41 37 36 29 25 24 24 26 27 35 32 30 27 24 26 28 28 33 34 38 38 41
33 34 38 45 54 53 48 48 47 46 57 53 57 56 54 57 49 46 50 49 45 45 47 44 41 36 34 33 24 26 26 31 28 32 29 30 32 30 29 29 31 35 37 40
35 35 42 53 69 62 51 50 41 42 51 56 58 59 51 54 47 43 47 44 40 43 40 30 24 25 26 26 27 27 28 27 29 35 28 31 39 35 33 33 32 34 41 38
30 34 40 34 18 56 51 50 42 44 47 55 58 54 50 48 47 44 37 35 36 28 15 11 13 17 19 19 21 20 23 21 23 28 23 40 31 21 22 28 29 29 32 31
24 24 36 12 7 22 37 34 37 39 44 45 47 47 47 40 34 33 32 31 25 19 19 21 22 23 21 21 19 18 16 20 25 29 31 29 23 19 23 25 27 24 29 28
14 16 18 16 4 9 23 27 27 29 36 44 39 42 42 44 38 31 26 18 20 17 23 27 33 35 28 27 22 17 16 17 24 24 31 36 21 17 20 21 32 23 30 27
15 9 13 12 8 4 15 18 24 23 28 27 31 37 37 30 30 29 23 23 21 17 25 29 29 28 21 27 27 26 23 23 27 26 29 28 19 15 16 29 27 22 22 20
19 9 5 6 8 6 6 12 13 19 23 21 23 24 27 24 25 31 24 20 21 20 25 25 24 23 22 21 18 20 22 21 24 25 31 37 19 19 25 24 24 23 21 22
16 13 7 6 5 5 9 11 9 13 14 16 11 11 13 14 17 22 19 19 17 17 21 19 18 18 17 16 21 12 20 18 19 20 24 18 18 21 21 23 23 20 21 19
14 12 11 11 11 12 14 17 16 16 18 13 9 7 9 5 15 11 12 12 8 10 13 9 11 15 12 17 18 14 16 14 20 20 21 21 21 22 23 21 21 20 22 24
12 10 10 13 10 10 7 7 9 11 9 13 7 5 6 6 13 10 10 9 8 8 9 11 11 11 12 15 15 14 16 15 20 24 22 21 23 23 22 21 21 24 27 29
10 10 9 7 4 4 8 8 1 10 10 11 9 6 2 3 7 4 6 6 8 9 11 12 12 12 13 15 16 18 15 18 22 25 17 18 21 19 22 24 25 28 29 30
9 10 11 10 6 6 5 4 4 2 5 8 9 7 3 3 3 3 4 5 8 9 11 12 13 12 13 17 20 16 13 14 17 22 22 22 22 24 26 26 29 29 32 31
11 13 13 12 12 8 6 6 8 11 3 6 9 10 8 2 4 5 5 7 11 11 13 15 13 13 14 18 20 14 11 15 15 17 19 22 24 26 30 30 31 28 26 28
13 13 14 13 9 7 9 10 9 8 5 8 11 10 10 10 8 11 11 11 12 13 13 13 14 12 15 20 15 15 16 15 15 15 18 23 26 27 26 27 25 22 21 21
26 6 6 8 9 8 10 13 12 11 10 11 11 12 16 9 10 10 11 12 16 14 17 17 15 18 21 15 15 13 12 12 13 17 20 21 20 24 25 25 24 19 20 20
18 13 9 15 6 9 11 11 12 12 13 11 5 8 11 9 10 14 13 13 14 19 16 12 19 20 15 13 13 11 11 13 16 17 18 21 23 21 21 19 19 21 21 22
16 8 9 16 11 6 13 13 13 12 11 10 10 7 4 8 10 12 14 15 13 18 14 14 19 21 13 9 9 12 14 16 18 17 18 18 14 13 15 17 18 20 19 20
20 25 18 13 10 15 16 16 15 14 13 10 7 5 5 7 8 9 9 12 12 17 9 14 19 12 6 7 11 12 12 12 13 16 15 13 13 13 13 17 16 15 14 14
15 16 7 12 12 16 16 15 14 13 12 8 5 6 8 7 9 9 9 11 13 6 12 16 14 5 8 8 8 8 8 8 11 13 13 14 12 16 14 12 12 12 13 12
17 14 13 13 15 15 15 15 14 15 13 7 5 7 10 9 8 9 10 10 10 15 17 16 9 4 4 6 5 5 7 9 10 11 11 12 12 14 14 12 12 12 12 12
15 9 12 12 15 14 14 14 15 13 13 9 6 9 10 9 9 11 10 10 13 13 14 16 5 3 3 5 4 7 8 8 9 11 11 11 12 12 12 12 12 12 13 14
13 10 15 13 13 13 12 12 12 12 13 10 13 10 10 11 11 11 12 12 13 16 10 11 7 5 4 4 5 9 6 8 9 10 11 11 11 11 12 14 15 15 15 16
12 11 17 18 18 17 16 15 15 14 17 15 14 15 14 11 17 18 19 20 17 12 10 11 11 7 4 5 8 7 8 9 10 10 10 11 11 12 14 16 15 17 17 18
Wind_Direction
292 284 276 266 257 251 244 234 232 234 219 225 228 228 233 234 236 234 246 244 242 245 240 237 244 240 249 243 238 224 251 266 259 255 277 276 263 265 266 274 281 283 288 284
276 276 272 257 250 248 227 230 230 235 220 226 228 234 233 234 233 233 239 243 242 243 246 248 239 241 266 254 235 229 240 262 264 266 276 274 268 271 275 277 283 278 282 290
283 268 258 248 241 241 231 227 226 230 226 229 229 227 229 231 235 235 238 240 240 240 247 247 239 248 253 251 248 257 251 264 259 260 275 273 264 267 271 275 278 283 279 290
294 284 260 251 242 238 232 226 228 225 221 223 224 225 227 227 230 236 235 237 235 236 243 245 242 243 242 254 260 258 262 264 266 272 273 280 274 268 269 273 278 282 291 289
294 286 270 257 245 236 233 229 225 226 222 220 220 220 226 223 229 231 233 239 234 236 242 245 239 239 244 251 255 258 267 272 272 270 273 276 276 277 276 276 279 282 287 290
301 296 298 278 252 232 223 223 221 222 217 217 218 222 222 224 223 240 237 235 236 242 245 249 245 247 251 248 247 259 267 266 269 272 273 277 278 275 276 280 282 286 289 298
309 313 322 320 237 193 201 209 214 220 220 217 220 221 221 223 226 235 237 227 235 242 204 223 255 259 254 249 251 260 255 261 269 275 274 276 287 298 288 284 286 289 294 299
321 324 357 348 74 171 190 206 208 221 221 217 219 217 220 220 226 231 229 236 228 200 208 234 250 255 256 254 248 247 248 259 271 273 270 290 291 291 292 294 295 297 300 305
316 331 352 9 184 180 191 211 217 216 213 224 210 211 212 215 220 230 231 209 192 217 239 245 245 252 252 255 253 249 254 259 273 271 278 283 296 303 314 317 299 305 304 305
332 336 360 23 45 210 209 219 220 209 216 209 206 214 211 219 218 215 213 211 218 241 240 245 246 253 251 252 249 246 251 258 263 270 279 290 296 311 314 299 308 324 324 320
347 337 5 25 29 52 151 203 216 203 200 213 207 209 205 201 202 213 201 213 237 239 243 250 254 250 252 255 247 243 252 258 266 273 278 283 299 296 291 305 313 322 321 323
348 347 347 20 46 105 105 105 148 169 172 178 165 185 201 199 214 181 209 236 222 247 247 252 260 244 258 249 252 237 261 267 273 278 288 306 308 306 313 315 314 313 315 316
356 1 8 24 44 67 93 98 111 118 125 133 143 174 184 181 161 169 216 212 246 231 249 245 260 259 253 253 265 250 269 261 287 287 295 297 305 310 313 314 312 313 313 314
9 7 13 35 37 52 82 119 180 186 171 172 161 113 123 183 168 195 244 185 225 236 240 261 267 267 264 265 271 270 272 276 287 291 298 309 312 313 312 314 317 318 315 315
14 18 11 356 347 42 60 54 111 208 206 159 139 133 166 158 177 191 184 203 216 236 259 263 262 284 275 286 286 283 284 286 285 295 309 307 312 317 316 316 315 314 314 313
27 13 358 350 325 259 257 245 319 314 214 192 202 237 225 221 213 208 223 235 250 268 270 270 288 301 297 285 285 295 308 307 305 306 315 315 315 311 311 312 313 313 313 313
30 20 7 6 12 6 306 274 272 260 272 223 241 246 259 265 256 264 267 292 279 280 283 287 294 296 300 298 293 310 314 316 318 318 320 316 316 315 313 313 311 311 311 313
31 19 8 4 5 16 14 342 314 299 315 289 263 258 255 268 261 267 288 284 289 293 297 297 294 310 309 299 303 304 308 312 321 323 324 319 318 319 322 322 322 321 319 322
104 182 326 352 358 346 331 313 333 335 313 290 286 254 255 275 279 287 290 298 286 299 289 292 299 294 294 308 311 313 318 323 325 322 320 323 326 325 333 336 332 335 337 336
130 150 3 15 323 273 297 327 328 324 320 320 310 301 275 261 278 285 285 291 291 289 291 303 294 292 299 306 321 338 329 329 324 318 320 322 325 333 338 342 340 331 329 310
126 174 348 159 183 234 344 341 338 331 325 322 320 317 293 285 278 287 286 291 295 289 294 292 297 298 295 305 322 319 320 321 320 324 326 331 345 351 353 347 340 324 317 312
108 104 142 170 242 334 345 334 337 329 321 327 332 348 344 323 315 307 311 297 305 293 314 306 301 310 319 320 309 315 321 328 338 339 342 22 25 241 18 328 285 254 246 246
136 96 297 272 298 333 332 329 333 334 336 346 7 358 339 325 322 323 322 307 298 332 309 306 312 318 305 306 315 321 326 336 353 5 13 34 353 19 342 282 278 255 250 265
74 115 291 297 301 312 322 332 329 334 349 340 352 327 324 328 331 330 313 316 312 297 295 300 316 315 314 320 328 324 318 320 347 347 337 350 329 354 341 297 284 276 273 282
86 164 234 278 332 314 300 286 331 304 220 33 338 298 314 301 315 309 323 313 302 302 303 290 4 41 334 309 311 307 311 337 357 329 322 334 329 341 331 280 275 274 270 275
187 203 180 269 262 279 262 254 277 279 236 262 259 304 311 299 304 300 294 295 290 266 309 295 3 357 327 315 320 292 343 338 335 310 321 341 319 330 311 273 270 286 299 305
143 76 307 253 244 268 261 198 222 258 232 256 275 274 272 296 260 254 248 252 269 295 303 302 313 333 339 314 288 315 315 319 308 316 334 352 343 317 308 309 327 307 316 343